Location: *
(48.8489°N, 2.3218°E)
Time: 13:27:11
(UTC+00:00)

Cosmos 1898 Rocket - Visible Passes

Search period start: 15 November 2019 00:00
Search period end: 25 November 2019 00:00
Orbit: 753 x 784 km, 74.0° (Epoch: 14 November)

Date Brightness Start Highest point End Pass type
(mag) Time Alt. Az. Time Alt. Az. Time Alt. Az.
15 Nov 6.5 03:13:41 10° ESE 03:15:46 12° E 03:17:51 10° ENE visible
15 Nov 3.5 04:51:42 10° SSW 04:56:56 82° ESE 05:02:15 10° NNE visible
16 Nov 4.3 04:15:07 10° S 04:20:09 51° ESE 04:25:17 10° NNE visible
16 Nov 4.4 05:58:01 10° WSW 06:02:31 28° NW 06:07:06 10° N visible
17 Nov 5.1 03:41:11 23° SE 03:43:29 32° ESE 03:48:09 10° NE visible
17 Nov 3.9 05:21:35 16° SW 05:25:26 42° WNW 05:30:29 10° NNE visible
18 Nov 5.7 03:06:38 20° E 03:06:55 20° E 03:10:42 10° NE visible
18 Nov 3.4 04:47:00 45° SW 04:48:27 65° WNW 04:53:45 10° NNE visible
19 Nov 6.4 02:31:38 11° ENE 02:31:38 11° ENE 02:32:29 10° ENE visible
19 Nov 3.6 04:11:59 75° NE 04:11:59 75° NE 04:16:55 10° NNE visible
19 Nov 4.8 05:52:20 16° WNW 05:54:23 20° NW 05:58:14 10° N visible
20 Nov 4.9 03:36:42 34° NE 03:36:42 34° NE 03:39:57 10° NNE visible
20 Nov 4.4 05:17:02 28° NW 05:17:11 28° NW 05:21:46 10° N visible
21 Nov 5.9 03:01:15 18° NE 03:01:15 18° NE 03:02:48 10° NE visible
21 Nov 4.4 04:41:34 34° NNW 04:41:34 34° NNW 04:45:09 10° NNE visible
21 Nov 5.5 06:23:35 10° NW 06:23:45 10° NW 06:23:54 10° NNW visible
22 Nov 5.0 04:05:58 27° N 04:05:58 27° N 04:08:25 10° NNE visible
22 Nov 5.2 05:46:16 14° NW 05:46:20 14° NW 05:49:08 10° N visible
23 Nov 5.7 03:30:15 18° NNE 03:30:15 18° NNE 03:31:35 10° NNE visible
23 Nov 5.2 05:10:33 18° NNW 05:10:33 18° NNW 05:12:55 10° N visible
24 Nov 6.4 02:54:28 11° NNE 02:54:28 11° NNE 02:54:37 10° NNE visible
24 Nov 5.4 04:34:46 18° N 04:34:46 18° N 04:36:27 10° N visible
